Weather Roundup
Issued by NWS

Home | Current Version | Previous Version | Text Only | Print | Product List | Glossary On
Versions: 1 2 3 4 5 6 7 8 9 10 11 12 13 14 15 16 17 18 19 20 21 22 23 24 25 26 27 28 29 30 31 32 33 34 35 36 37 38 39 40 41 42 43 44 45 46 47 48 49 50
000
NZUS93 KARX 260710
HRRWXR

CURRENT HOURLY OBSERVATIONS ACROSS
MUCH OF THE UPPER MISSISSIPPI VALLEY
NATIONAL WEATHER SERVICE LA CROSSE WI
200 AM CDT MON JUN 26 2017


...SOUTHEAST MINNESOTA...


CITY           SKY/WX    TMP DP  RH WIND       PRES   REMARKS
ROCHESTER      PTCLDY    50  45  83 W9        30.13F
ROCHESTER/MAYO FAIR      55  44  66 W9        30.13S
WINONA         CLEAR     48  45  87 CALM      30.12S
AUSTIN         CLOUDY    55  45  67 W7        30.14S
ALBERT LEA     CLEAR     54  45  71 W3        30.16R
DODGE CENTER   CLEAR     54  45  71 W7        30.13F
PRESTON        CLEAR     50  43  75 W8        30.13F
OWATONNA       PTCLDY    54  46  76 W7        30.15R
FARIBAULT      PTCLDY    54  46  76 W7        30.14S
$$

...ELSEWHERE IN MINNESOTA...


CITY           SKY/WX    TMP DP  RH WIND       PRES   REMARKS
MINNEAPOLIS    CLEAR     54  44  69 NW5       30.13F
INTNL FALLS    CLEAR     41  39  93 CALM      30.12S
DULUTH         CLEAR     42  42 100 NW6       30.10S
RED WING       CLEAR     46  43  87 CALM      30.11S
REDWOOD FALLS  CLEAR     51  45  79 W7        30.18S
MANKATO        MOCLDY    54  48  80 W7        30.16S
WORTHINGTON    CLOUDY    53  51  93 W7        30.22S
FAIRMONT       CLOUDY    57  50  77 W8        30.19R
$$

...SOUTHWEST WISCONSIN...


CITY           SKY/WX    TMP DP  RH WIND       PRES   REMARKS
LA CROSSE      PTCLDY    55  49  80 SE3       30.10S
PRAIRIE DU CHI PTCLDY    50  45  83 CALM      30.11F
BOSCOBEL       CLEAR     49  47  93 CALM      30.11F
LONE ROCK      PTCLDY    48  46  93 CALM      30.10F
PLATTEVILLE    CLEAR     51  49  92 W5        30.12F
FORT MC COY    CLEAR     42  42 100 CALM      30.10F
CAMP DOUGLAS   PTCLDY    45  44  98 W7        30.08F
MAUSTON-NEW LI MOSUNNY   52  46  78 W5        30.08S
VIROQUA        FAIR      51  47  86 W6        30.10F
WIS DELLS      CLEAR     47  46  95 CALM      30.09S
$$

...ELSEWHERE IN WISCONSIN...


CITY           SKY/WX    TMP DP  RH WIND       PRES   REMARKS
MILWAUKEE      MOCLDY    57  53  86 W7        30.07S
MADISON        CLEAR     54  51  90 CALM      30.08F
GREEN BAY      CLEAR     51  50  96 W7        30.02S
EAU CLAIRE     CLEAR     48  46  93 W3        30.09S
BLACK RVR FLS    N/A     38  38 100 CALM      30.09S FOG
MEDFORD        CLEAR     45  44  96 W6        30.05F
WAUSAU         CLEAR     49  47  93 NW9       30.03S
WIS RAPIDS     CLEAR     48  46  93 W6        30.07F
MARSHFIELD     CLEAR     47  44  90 NW6       30.05F
RICE LAKE      CLEAR     48  45  88 CALM      30.12S
$$

...NORTHEAST IOWA...


CITY           SKY/WX    TMP DP  RH WIND       PRES   REMARKS
WATERLOO       CLEAR     50  44  80 CALM      30.15S
DUBUQUE        CLEAR     52  45  77 W9        30.13F
DECORAH        CLOUDY    54  45  71 CALM      30.11F
MASON CITY     MOCLDY    54  46  74 W12       30.18S
CHARLES CITY   PTCLDY    52  46  82 W7        30.15S
OELWEIN        NOT AVBL
$$

...ELSEWHERE IN IOWA...


CITY           SKY/WX    TMP DP  RH WIND       PRES   REMARKS
DES MOINES     CLEAR     56  51  84 CALM      30.18F
IOWA CITY      PTCLDY    53  46  77 W3        30.17F
FORT DODGE     CLOUDY    57  46  67 NW9G18    30.23R
MARSHALLTOWN   CLEAR     53  46  77 W5        30.16F
CEDAR RAPIDS   PTCLDY    49  45  86 W8        30.15S
$$

...NORTHERN ILLINOIS...


CITY           SKY/WX    TMP DP  RH WIND       PRES   REMARKS
CHICAGO-OHARE  PTCLDY    57  49  74 CALM      30.09F
CHICAGO-MIDWAY PTCLDY    58  50  75 W6        30.09F
MOLINE         CLEAR     54  48  80 SW3       30.15S
ROCKFORD       CLEAR     54  49  83 W5        30.11F
PEORIA         CLEAR     54  51  90 CALM      30.16S
$$

NOTE: "FAIR" INDICATES FEW OR NO CLOUDS BELOW 12,000 FEET WITH NO
SIGNIFICANT WEATHER AND/OR OBSTRUCTIONS TO VISIBILITY. WIND
SPEEDS ARE IN MILES-PER-HOUR.




USA.gov is the U.S. government's official web portal to all federal, state and local government web resources and services.